KC0VVH Weather Reports


time (UTC)temp
F
wind
direction
speed
knots
gust
knots
rain 1hr
in
rain 24hr
in
rain mn
in
humidity
%
barometer
mb
20260904151832 79 74 2.6 6.1 0.00 0.00 0.00 35 1016.5
20260904150932 79 76 1.7 6.1 0.00 0.00 0.00 37 1016.5
20260904150011 79 141 0.0 3.5 0.00 0.00 0.00 36 1016.5
20260904145411 79 141 0.0 3.5 0.00 0.00 0.00 36 1016.5
20260904144532 78 0 0.0 0.9 0.00 0.00 0.00 36 1016.5
20260904143611 77 208 0.0 4.3 0.00 0.00 0.00 35 1016.5
20260904142711 76 181 0.0 4.3 0.00 0.00 0.00 34 1016.5
20260904141832 76 186 0.9 5.2 0.00 0.00 0.00 35 1016.5
20260904140932 75 199 0.9 6.1 0.00 0.00 0.00 35 1016.5
20260904140011 74 190 2.6 7.0 0.00 0.00 0.00 36 1016.5
20260904135411 73 199 2.6 8.7 0.00 0.00 0.00 36 1016.5
20260904134511 72 195 3.5 8.7 0.00 0.00 0.00 36 1016.5
20260904133632 72 193 3.5 7.0 0.00 0.00 0.00 37 1016.5
20260904132732 71 204 1.7 7.8 0.00 0.00 0.00 37 1016.5
20260904131811 71 219 0.9 6.1 0.00 0.00 0.00 37 1016.5
20260904130911 71 210 2.6 9.6 0.00 0.00 0.00 37 1016.5
20260904130011 72 208 2.6 9.6 0.00 0.00 0.00 37 1016.5
20260904125432 72 217 1.7 7.0 0.00 0.00 0.00 36 1016.5
20260904124511 73 206 1.7 7.0 0.00 0.00 0.00 35 1016.5
20260904123633 73 205 1.7 7.0 0.00 0.00 0.00 34 1016.5
20260904122711 73 205 1.7 6.1 0.00 0.00 0.00 34 1016.5
20260904121811 73 204 1.7 7.0 0.00 0.00 0.00 35 1016.5
20260904120911 72 202 1.7 7.8 0.00 0.00 0.00 35 1016.5
20260904120011 73 202 1.7 6.1 0.00 0.00 0.00 35 1016.5
20260904115411 73 204 1.7 7.0 0.00 0.00 0.00 35 1016.5
20260904114511 73 210 0.9 7.8 0.00 0.00 0.00 35 1016.5
20260904113611 73 201 2.6 9.6 0.00 0.00 0.00 35 1016.5
20260904112711 73 205 1.7 9.6 0.00 0.00 0.00 34 1016.5
20260904111832 73 218 0.9 6.1 0.00 0.00 0.00 35 1016.5
20260904110911 73 199 2.6 7.0 0.00 0.00 0.00 34 1016.5
20260904110011 73 207 2.6 7.0 0.00 0.00 0.00 34 1016.5
20260904105411 73 203 1.7 7.0 0.00 0.00 0.00 34 1016.5
20260904104511 73 215 0.9 5.2 0.00 0.00 0.00 34 1016.5
20260904103611 73 224 1.7 8.7 0.00 0.00 0.00 33 1016.5
20260904102711 73 225 1.7 7.8 0.00 0.00 0.00 33 1016.5
20260904101811 74 214 0.9 6.1 0.00 0.00 0.00 33 1016.5
20260904100911 74 205 2.6 9.6 0.00 0.00 0.00 33 1016.5
20260904100011 74 207 1.7 10.4 0.00 0.00 0.00 32 1016.5
20260904095411 74 208 1.7 7.8 0.00 0.00 0.00 32 1016.5
20260904094511 74 204 2.6 7.8 0.00 0.00 0.00 32 1016.5
20260904093611 74 208 3.5 8.7 0.00 0.00 0.00 32 1016.5
20260904092711 75 213 3.5 7.8 0.00 0.00 0.00 31 1016.5
20260904091811 75 205 2.6 7.0 0.00 0.00 0.00 31 1016.5
20260904090911 75 209 2.6 7.0 0.00 0.00 0.00 31 1016.5
20260904090011 75 215 2.6 7.8 0.00 0.00 0.00 31 1016.5
20260904085411 75 216 2.6 7.8 0.00 0.00 0.00 31 1016.5
20260904084511 75 226 2.6 7.0 0.00 0.00 0.00 31 1016.5
20260904083611 75 226 2.6 6.1 0.00 0.00 0.00 31 1016.5
20260904082711 75 224 2.6 6.1 0.00 0.00 0.00 31 1016.5
20260904081811 75 213 2.6 7.8 0.00 0.00 0.00 31 1016.5
20260904080911 75 215 1.7 7.0 0.00 0.00 0.00 31 1016.5
20260904080032 75 206 1.7 7.0 0.00 0.00 0.00 31 1016.5
20260904075411 75 221 1.7 7.0 0.00 0.00 0.00 31 1016.5
20260904074511 74 221 0.9 7.0 0.00 0.00 0.00 32 1016.5
20260904073611 73 0 0.0 0.0 0.00 0.00 0.00 34 1016.5
20260904072711 74 156 0.0 5.2 0.00 0.00 0.00 32 1016.5
20260904071811 75 193 2.6 8.7 0.00 0.00 0.00 31 1016.5
20260904070911 75 206 3.5 10.4 0.00 0.00 0.00 30 1016.5
20260904070032 75 223 2.6 7.0 0.00 0.00 0.00 31 1016.5
20260904065411 75 221 3.5 8.7 0.00 0.00 0.00 30 1016.5
20260904064511 75 209 4.3 8.7 0.00 0.00 0.00 30 1016.5
20260904063611 75 205 5.2 7.8 0.00 0.00 0.00 30 1016.5
20260904062711 76 221 3.5 7.8 0.00 0.00 0.00 30 1016.5
20260904061811 76 238 3.5 8.7 0.00 0.00 0.00 29 1016.5
20260904060911 76 247 2.6 7.0 0.00 0.00 0.00 28 1016.5
20260904060012 76 237 2.6 7.8 0.00 0.00 0.00 29 1016.5
20260904055411 76 228 1.7 6.1 0.00 0.00 0.00 29 1016.5
20260904054511 76 227 1.7 6.1 0.00 0.00 0.00 29 1016.5
20260904053632 76 227 1.7 6.1 0.00 0.00 0.00 29 1016.5
20260904052711 76 227 1.7 6.1 0.00 0.00 0.00 29 1016.5
20260904051811 76 225 2.6 7.0 0.00 0.00 0.00 28 1016.5
20260904050911 76 225 2.6 7.0 0.00 0.00 0.00 29 1016.5
20260904050011 77 226 1.7 6.1 0.00 0.00 0.00 28 1016.5
20260904045411 77 226 0.9 5.2 0.00 0.00 0.00 28 1016.5
20260904044511 78 227 2.6 6.1 0.00 0.00 0.00 27 1016.5
20260904043611 78 227 2.6 6.1 0.00 0.00 0.00 27 1016.5
20260904042711 78 226 3.5 7.8 0.00 0.00 0.00 26 1016.5
20260904041811 77 229 2.6 7.0 0.00 0.00 0.00 27 1016.5
20260904040911 78 225 2.6 6.1 0.00 0.00 0.00 27 1016.5
20260904040032 77 237 2.6 10.4 0.00 0.00 0.00 28 1016.5
20260904035432 77 243 1.7 6.1 0.00 0.00 0.00 28 1016.5
20260904034511 77 244 0.9 3.5 0.00 0.00 0.00 28 1016.5
20260904033611 77 0 0.0 0.0 0.00 0.00 0.00 28 1016.5
20260904032732 77 244 0.9 3.5 0.00 0.00 0.00 27 1016.5
20260904031832 78 244 0.9 7.0 0.00 0.00 0.00 29 1016.5
20260904030911 78 244 1.7 4.3 0.00 0.00 0.00 28 1016.5
20260904030011 78 243 0.9 4.3 0.00 0.00 0.00 27 1016.5
20260904025432 78 241 1.7 4.3 0.00 0.00 0.00 27 1016.5
20260904024511 78 229 2.6 7.8 0.00 0.00 0.00 25 1016.5
20260904023632 78 226 1.7 9.6 0.00 0.00 0.00 25 1016.5
20260904022711 78 240 1.7 6.1 0.00 0.00 0.00 25 1016.5
20260904021811 78 206 0.9 6.1 0.00 0.00 0.00 26 1016.5
20260904020911 79 138 0.9 2.6 0.00 0.00 0.00 26 1016.5
20260904020011 78 90 0.9 5.2 0.00 0.00 0.00 27 1016.5
20260904015411 78 62 0.0 5.2 0.00 0.00 0.00 27 1016.5
20260904014511 78 61 0.0 1.7 0.00 0.00 0.00 26 1016.5
20260904013611 78 0 0.0 0.0 0.00 0.03 0.00 27 1016.5
20260904012732 79 0 0.0 0.0 0.00 0.03 0.00 28 1016.5
20260904011811 80 0 0.0 0.0 0.00 0.03 0.00 26 1016.5
20260904010911 81 0 0.0 0.9 0.00 0.03 0.00 24 1016.5
20260904010011 82 0 0.0 0.0 0.00 0.03 0.00 20 1016.5
20260904005411 83 0 0.0 0.0 0.00 0.03 0.00 20 1016.5
20260904004512 83 0 0.0 0.0 0.00 0.03 0.00 21 1016.5
20260904003633 83 60 0.9 3.5 0.00 0.03 0.00 21 1016.5
20260904002732 83 60 0.0 3.5 0.00 0.03 0.00 23 1016.5
20260904001811 84 60 0.0 3.5 0.00 0.03 0.00 22 1016.5
20260904000911 84 60 0.0 0.9 0.00 0.03 0.00 21 1016.5
20260904000011 83 0 0.0 0.0 0.00 0.03 0.00 24 1016.5
20260903235411 82 0 0.0 0.0 0.00 0.03 0.00 24 1016.5
20260903234511 83 60 0.9 3.5 0.00 0.03 0.00 24 1016.5
20260903233611 83 0 0.0 0.0 0.00 0.03 0.00 22 1016.5
20260903232712 84 60 0.9 4.3 0.00 0.03 0.00 21 1016.5
20260903231811 84 60 0.9 4.3 0.00 0.03 0.00 22 1016.5
20260903230911 84 60 0.9 3.5 0.00 0.03 0.00 23 1016.5
20260903230011 83 60 1.7 5.2 0.00 0.03 0.00 23 1016.5
20260903225411 83 61 0.9 4.3 0.00 0.03 0.00 23 1016.5
20260903224533 84 61 0.9 4.3 0.00 0.03 0.00 22 1016.5
20260903223611 84 58 1.7 5.2 0.00 0.03 0.00 21 1016.5
20260903222711 86 31 2.6 6.1 0.00 0.03 0.00 21 1016.5
20260903221811 87 16 2.6 7.0 0.00 0.03 0.00 21 1016.5
20260903220911 87 26 2.6 8.7 0.00 0.03 0.00 20 1016.5
20260903220011 87 48 2.6 8.7 0.00 0.03 0.00 23 1016.5
20260903215411 87 53 2.6 7.8 0.00 0.03 0.00 21 1016.5
20260903214512 87 53 1.7 7.8 0.00 0.03 0.00 21 1016.5
20260903213611 87 54 2.6 6.1 0.00 0.03 0.00 23 1016.5
20260903212711 87 36 4.3 8.7 0.00 0.03 0.00 24 1016.5
20260903211811 87 14 3.5 7.8 0.00 0.03 0.00 25 1016.5
20260903210911 86 13 1.7 7.8 0.00 0.03 0.00 24 1016.5
20260903210011 86 7 1.7 7.8 0.00 0.03 0.00 24 1016.5
20260903205411 86 22 3.5 7.8 0.00 0.03 0.00 25 1016.5
20260903204511 86 15 4.3 8.7 0.00 0.03 0.00 26 1016.5
20260903203611 85 2 3.5 8.7 0.00 0.03 0.00 26 1016.5
20260903202712 85 9 2.6 7.0 0.00 0.03 0.00 28 1016.5
20260903201833 84 47 4.3 8.7 0.00 0.03 0.00 27 1016.5
20260903200912 84 32 3.5 7.8 0.00 0.03 0.00 29 1016.5
20260903200011 84 21 3.5 8.7 0.00 0.03 0.00 29 1016.5
20260903195412 83 18 2.6 8.7 0.00 0.03 0.00 30 1016.5
20260903194511 83 347 1.7 7.8 0.00 0.03 0.00 30 1016.5
20260903193633 84 3 2.6 8.7 0.00 0.03 0.00 30 1016.5
20260903192712 83 20 2.6 7.0 0.00 0.03 0.00 30 1016.5
20260903191812 83 9 1.7 7.8 0.00 0.03 0.00 29 1016.5
20260903190911 83 14 2.6 7.0 0.00 0.03 0.00 31 1016.5
20260903190011 83 32 4.3 8.7 0.00 0.03 0.00 30 1016.5
20260903185412 83 34 1.7 7.8 0.00 0.03 0.00 30 1016.5
20260903184511 83 339 1.7 7.0 0.00 0.10 0.00 30 1016.5
20260903183612 83 41 1.7 6.1 0.00 0.23 0.00 32 1016.5
20260903182712 82 353 2.6 7.8 0.00 0.23 0.00 32 1016.5
20260903181812 82 358 1.7 7.0 0.00 0.23 0.00 33 1016.5
20260903180911 81 344 1.7 8.7 0.00 0.24 0.00 32 1016.5
20260903180011 81 10 3.5 9.6 0.00 0.24 0.00 35 1016.5
20260903175411 81 18 4.3 8.7 0.00 0.24 0.00 38 1016.5
20260903174512 81 8 2.6 7.0 0.00 0.24 0.00 37 1016.5
20260903173632 80 352 2.6 7.0 0.00 0.24 0.00 37 1016.5
20260903172711 79 355 2.6 7.8 0.00 0.25 0.00 41 1016.5
20260903171811 79 337 3.5 8.7 0.00 0.28 0.00 42 1016.5
20260903170911 78 331 1.7 7.0 0.00 0.28 0.00 44 1016.5
20260903170011 78 332 0.9 7.0 0.00 0.28 0.00 41 1016.5
20260903165411 77 332 1.7 7.0 0.00 0.28 0.00 43 1016.5
20260903164532 77 324 1.7 7.0 0.00 0.28 0.00 44 1016.5
20260903163633 77 333 1.7 8.7 0.00 0.28 0.00 46 1016.5
20260903162712 77 66 1.7 6.1 0.00 0.28 0.00 46 1016.5
20260903161832 77 30 2.6 5.2 0.00 0.28 0.00 47 1016.5
20260903160911 76 31 0.9 5.2 0.00 0.28 0.00 48 1016.5
20260903160011 76 31 0.9 5.2 0.00 0.28 0.00 48 1016.5
20260903155411 75 32 1.7 5.2 0.00 0.28 0.00 50 1016.5
20260903154512 74 30 0.0 3.5 0.00 0.28 0.00 47 1016.5
20260903153611 73 0 0.0 0.9 0.00 0.28 0.00 48 1016.5
20260903152732 73 0 0.0 0.0 0.00 0.28 0.00 48 1016.5